Location: Unspecified
(44.4377°N, 88.0525°W)
Time: 12:11:16
(UTC-06:00)

Resurs 1-4 Rocket - Visible Passes

Search period start: 12 February 2016 00:00
Search period end: 22 February 2016 00:00
Orbit: 801 x 813 km, 98.4° (Epoch: 11 February)

Date Brightness Start Highest point End Pass type
(mag) Time Alt. Az. Time Alt. Az. Time Alt. Az.
13 Feb 4.7 03:47:45 10° N 03:47:52 11° N 03:47:52 11° N visible
14 Feb 4.8 03:23:00 10° N 03:23:09 11° N 03:23:09 11° N visible
15 Feb 4.9 02:58:26 10° NNE 02:58:26 10° NNE 02:58:26 10° NNE visible
16 Feb 4.4 04:14:31 10° N 04:14:50 11° NNW 04:14:50 11° NNW visible
17 Feb 4.5 03:49:33 10° N 03:50:09 13° N 03:50:09 13° N visible
18 Feb 4.6 03:24:48 10° N 03:25:26 13° N 03:25:26 13° N visible
19 Feb 4.7 03:00:13 10° NNE 03:00:45 13° NNE 03:00:45 13° NNE visible
19 Feb 4.4 04:41:41 10° NNW 04:41:50 10° NNW 04:41:50 10° NNW visible
20 Feb 4.9 02:35:48 10° NNE 02:36:03 11° NNE 02:36:03 11° NNE visible
20 Feb 4.3 04:16:20 10° N 04:17:07 13° NNW 04:17:07 13° NNW visible
21 Feb 4.2 03:51:21 10° N 03:52:26 16° N 03:52:26 16° N visible
